Year,Month,Day,Hour,Minute,Value (Times are PST for temperature in C)
2020,08,16,00,00,20.40
2020,08,16,00,01,20.40
2020,08,16,00,02,20.40
2020,08,16,00,03,20.30
2020,08,16,00,04,20.30
2020,08,16,00,05,20.30
2020,08,16,00,06,20.30
2020,08,16,00,07,20.30
2020,08,16,00,08,20.30
2020,08,16,00,09,20.30
2020,08,16,00,11,20.30
2020,08,16,00,12,20.30
2020,08,16,00,13,20.20
2020,08,16,00,15,20.20
2020,08,16,00,16,20.20
2020,08,16,00,17,20.20
2020,08,16,00,18,20.20
2020,08,16,00,19,20.10
2020,08,16,00,20,20.10
2020,08,16,00,21,20.10
2020,08,16,00,22,20.10
2020,08,16,00,23,20.10
2020,08,16,00,24,20.10
2020,08,16,00,26,20.00
2020,08,16,00,27,20.00
2020,08,16,00,28,19.90
2020,08,16,00,29,19.90
2020,08,16,00,30,19.90
2020,08,16,00,31,19.90
2020,08,16,00,32,19.80
2020,08,16,00,33,19.80
2020,08,16,00,34,19.80
2020,08,16,00,35,19.80
2020,08,16,00,36,19.80
2020,08,16,00,37,19.70
2020,08,16,00,39,19.70
2020,08,16,00,40,19.70
2020,08,16,00,41,19.70
2020,08,16,00,42,19.60
2020,08,16,00,43,19.60
2020,08,16,00,44,19.60
2020,08,16,00,45,19.60
2020,08,16,00,47,19.50
2020,08,16,00,48,19.40
2020,08,16,00,49,19.40
2020,08,16,00,50,19.40
2020,08,16,00,51,19.40
2020,08,16,00,52,19.40
2020,08,16,00,53,19.30
2020,08,16,00,54,19.30
2020,08,16,00,55,19.30
2020,08,16,00,56,19.30
2020,08,16,00,57,19.30
2020,08,16,00,58,19.30
2020,08,16,00,59,19.20
2020,08,16,01,00,19.20
2020,08,16,01,01,19.20
2020,08,16,01,02,19.20
2020,08,16,01,03,19.20
2020,08,16,01,04,19.20
2020,08,16,01,05,19.20
2020,08,16,01,06,19.10
2020,08,16,01,07,19.10
2020,08,16,01,08,19.10
2020,08,16,01,09,19.10
2020,08,16,01,10,19.10
2020,08,16,01,11,19.10
2020,08,16,01,12,19.00
2020,08,16,01,13,19.00
2020,08,16,01,15,19.00
2020,08,16,01,16,18.90
2020,08,16,01,17,18.90
2020,08,16,01,18,18.90
2020,08,16,01,19,18.90
2020,08,16,01,20,18.80
2020,08,16,01,21,18.80
2020,08,16,01,22,18.80
2020,08,16,01,23,18.80
2020,08,16,01,24,18.80
2020,08,16,01,25,18.80
2020,08,16,01,26,18.80
2020,08,16,01,27,18.80
2020,08,16,01,28,18.80
2020,08,16,01,29,18.80
2020,08,16,01,30,18.70
2020,08,16,01,31,18.70
2020,08,16,01,32,18.70
2020,08,16,01,33,18.70
2020,08,16,01,34,18.70
2020,08,16,01,35,18.70
2020,08,16,01,36,18.70
2020,08,16,01,37,18.70
2020,08,16,01,38,18.60
2020,08,16,01,39,18.60
2020,08,16,01,40,18.60
2020,08,16,01,41,18.60
2020,08,16,01,42,18.60
2020,08,16,01,43,18.60
2020,08,16,01,45,18.60
2020,08,16,01,46,18.60
2020,08,16,01,47,18.60
2020,08,16,01,48,18.60
2020,08,16,01,49,18.50
2020,08,16,01,50,18.50
2020,08,16,01,52,18.50
2020,08,16,01,53,18.40
2020,08,16,01,54,18.40
2020,08,16,01,55,18.40
2020,08,16,01,56,18.40
2020,08,16,01,57,18.40
2020,08,16,01,58,18.40
2020,08,16,02,00,18.30
2020,08,16,02,01,18.30
2020,08,16,02,02,18.30
2020,08,16,02,03,18.30
2020,08,16,02,04,18.30
2020,08,16,02,05,18.20
2020,08,16,02,06,18.20
2020,08,16,02,07,18.20
2020,08,16,02,08,18.20
2020,08,16,02,09,18.20
2020,08,16,02,10,18.10
2020,08,16,02,11,18.10
2020,08,16,02,12,18.10
2020,08,16,02,13,18.10
2020,08,16,02,14,18.10
2020,08,16,02,15,18.10
2020,08,16,02,16,18.10
2020,08,16,02,17,18.10
2020,08,16,02,18,18.00
2020,08,16,02,19,18.00
2020,08,16,02,20,18.00
2020,08,16,02,21,17.90
2020,08,16,02,22,17.90
2020,08,16,02,23,17.90
2020,08,16,02,24,17.90
2020,08,16,02,25,17.90
2020,08,16,02,26,17.80
2020,08,16,02,27,17.80
2020,08,16,02,28,17.80
2020,08,16,02,29,17.80
2020,08,16,02,30,17.80
2020,08,16,02,31,17.80
2020,08,16,02,32,17.70
2020,08,16,02,33,17.70
2020,08,16,02,34,17.70
2020,08,16,02,35,17.70
2020,08,16,02,36,17.70
2020,08,16,02,37,17.70
2020,08,16,02,38,17.70
2020,08,16,02,39,17.60
2020,08,16,02,40,17.60
2020,08,16,02,41,17.60
2020,08,16,02,42,17.60
2020,08,16,02,43,17.60
2020,08,16,02,44,17.60
2020,08,16,02,45,17.50
2020,08,16,02,46,17.50
2020,08,16,02,47,17.50
2020,08,16,02,48,17.50
2020,08,16,02,49,17.40
2020,08,16,02,50,17.40
2020,08,16,02,51,17.40
2020,08,16,02,52,17.40
2020,08,16,02,53,17.40
2020,08,16,02,54,17.40
2020,08,16,02,55,17.40
2020,08,16,02,56,17.40
2020,08,16,02,57,17.40
2020,08,16,02,58,17.40
2020,08,16,02,59,17.30
2020,08,16,03,00,17.30
2020,08,16,03,01,17.30
2020,08,16,03,02,17.30
2020,08,16,03,03,17.30
2020,08,16,03,04,17.30
2020,08,16,03,05,17.30
2020,08,16,03,06,17.20
2020,08,16,03,07,17.20
2020,08,16,03,08,17.20
2020,08,16,03,09,17.20
2020,08,16,03,10,17.20
2020,08,16,03,11,17.20
2020,08,16,03,12,17.20
2020,08,16,03,13,17.10
2020,08,16,03,14,17.10
2020,08,16,03,15,17.10
2020,08,16,03,16,17.10
2020,08,16,03,17,17.10
2020,08,16,03,18,17.10
2020,08,16,03,19,17.10
2020,08,16,03,20,17.00
2020,08,16,03,21,17.00
2020,08,16,03,22,17.00
2020,08,16,03,23,17.00
2020,08,16,03,24,17.00
2020,08,16,03,25,16.90
2020,08,16,03,26,16.90
2020,08,16,03,27,16.90
2020,08,16,03,28,16.90
2020,08,16,03,30,16.90
2020,08,16,03,31,16.90
2020,08,16,03,32,16.90
2020,08,16,03,33,16.90
2020,08,16,03,34,16.90
2020,08,16,03,35,16.80
2020,08,16,03,36,16.80
2020,08,16,03,37,16.80
2020,08,16,03,38,16.80
2020,08,16,03,39,16.80
2020,08,16,03,40,16.80
2020,08,16,03,41,16.80
2020,08,16,03,42,16.80
2020,08,16,03,43,16.70
2020,08,16,03,44,16.70
2020,08,16,03,45,16.70
2020,08,16,03,46,16.70
2020,08,16,03,47,16.70
2020,08,16,03,48,16.70
2020,08,16,03,49,16.70
2020,08,16,03,50,16.70
2020,08,16,03,51,16.70
2020,08,16,03,52,16.70
2020,08,16,03,53,16.70
2020,08,16,03,54,16.70
2020,08,16,03,55,16.70
2020,08,16,03,56,16.70
2020,08,16,03,57,16.70
2020,08,16,03,58,16.60
2020,08,16,03,59,16.60
2020,08,16,04,00,16.60
2020,08,16,04,01,16.60
2020,08,16,04,02,16.60
2020,08,16,04,03,16.60
2020,08,16,04,04,16.60
2020,08,16,04,05,16.60
2020,08,16,04,06,16.60
2020,08,16,04,07,16.60
2020,08,16,04,08,16.50
2020,08,16,04,09,16.50
2020,08,16,04,10,16.50
2020,08,16,04,11,16.50
2020,08,16,04,12,16.50
2020,08,16,04,13,16.40
2020,08,16,04,14,16.40
2020,08,16,04,15,16.40
2020,08,16,04,16,16.40
2020,08,16,04,17,16.40
2020,08,16,04,18,16.40
2020,08,16,04,19,16.30
2020,08,16,04,20,16.30
2020,08,16,04,21,16.30
2020,08,16,04,22,16.30
2020,08,16,04,23,16.30
2020,08,16,04,24,16.30
2020,08,16,04,25,16.30
2020,08,16,04,26,16.20
2020,08,16,04,27,16.20
2020,08,16,04,28,16.20
2020,08,16,04,29,16.20
2020,08,16,04,30,16.20
2020,08,16,04,31,16.20
2020,08,16,04,32,16.20
2020,08,16,04,33,16.10
2020,08,16,04,34,16.10
2020,08,16,04,35,16.10
2020,08,16,04,36,16.10
2020,08,16,04,37,16.10
2020,08,16,04,38,16.10
2020,08,16,04,39,16.10
2020,08,16,04,40,16.00
2020,08,16,04,41,16.00
2020,08,16,04,42,15.90
2020,08,16,04,43,15.90
2020,08,16,04,44,15.90
2020,08,16,04,45,15.90
2020,08,16,04,46,15.90
2020,08,16,04,47,15.90
2020,08,16,04,48,15.90
2020,08,16,04,49,15.80
2020,08,16,04,50,15.80
2020,08,16,04,51,15.80
2020,08,16,04,52,15.80
2020,08,16,04,53,15.80
2020,08,16,04,54,15.80
2020,08,16,04,55,15.80
2020,08,16,04,56,15.80
2020,08,16,04,57,15.80
2020,08,16,04,58,15.80
2020,08,16,04,59,15.80
2020,08,16,05,00,15.80
2020,08,16,05,01,15.80
2020,08,16,05,02,15.80
2020,08,16,05,03,15.70
2020,08,16,05,04,15.70
2020,08,16,05,05,15.70
2020,08,16,05,06,15.70
2020,08,16,05,07,15.70
2020,08,16,05,08,15.70
2020,08,16,05,09,15.70
2020,08,16,05,10,15.70
2020,08,16,05,11,15.70
2020,08,16,05,12,15.70
2020,08,16,05,13,15.70
2020,08,16,05,14,15.60
2020,08,16,05,15,15.60
2020,08,16,05,16,15.60
2020,08,16,05,17,15.60
2020,08,16,05,18,15.60
2020,08,16,05,19,15.60
2020,08,16,05,20,15.60
2020,08,16,05,21,15.60
2020,08,16,05,22,15.60
2020,08,16,05,23,15.60
2020,08,16,05,24,15.60
2020,08,16,05,25,15.60
2020,08,16,05,26,15.50
2020,08,16,05,27,15.50
2020,08,16,05,28,15.50
2020,08,16,05,29,15.50
2020,08,16,05,30,15.50
2020,08,16,05,31,15.40
2020,08,16,05,32,15.40
2020,08,16,05,33,15.40
2020,08,16,05,34,15.40
2020,08,16,05,36,15.40
2020,08,16,05,37,15.40
2020,08,16,05,38,15.40
2020,08,16,05,39,15.40
2020,08,16,05,40,15.40
2020,08,16,05,41,15.30
2020,08,16,05,42,15.30
2020,08,16,05,43,15.30
2020,08,16,05,44,15.30
2020,08,16,05,45,15.30
2020,08,16,05,47,15.30
2020,08,16,05,48,15.30
2020,08,16,05,49,15.30
2020,08,16,05,50,15.30
2020,08,16,05,51,15.30
2020,08,16,05,52,15.20
2020,08,16,05,53,15.20
2020,08,16,05,54,15.20
2020,08,16,05,55,15.20
2020,08,16,05,56,15.20
2020,08,16,05,57,15.20
2020,08,16,05,58,15.20
2020,08,16,05,59,15.20
2020,08,16,06,00,15.20
2020,08,16,06,01,15.20
2020,08,16,06,02,15.20
2020,08,16,06,03,15.20
2020,08,16,06,04,15.20
2020,08,16,06,05,15.20
2020,08,16,06,06,15.20
2020,08,16,06,07,15.20
2020,08,16,06,08,15.10
2020,08,16,06,09,15.20
2020,08,16,06,10,15.20
2020,08,16,06,11,15.20
2020,08,16,06,12,15.20
2020,08,16,06,13,15.20
2020,08,16,06,14,15.10
2020,08,16,06,15,15.10
2020,08,16,06,16,15.10
2020,08,16,06,17,15.10
2020,08,16,06,18,15.10
2020,08,16,06,19,15.10
2020,08,16,06,20,15.10
2020,08,16,06,21,15.10
2020,08,16,06,22,15.10
2020,08,16,06,23,15.10
2020,08,16,06,25,15.10
2020,08,16,06,26,15.10
2020,08,16,06,27,15.10
2020,08,16,06,28,15.10
2020,08,16,06,29,15.10
2020,08,16,06,30,15.10
2020,08,16,06,31,15.10
2020,08,16,06,32,15.00
2020,08,16,06,33,15.00
2020,08,16,06,34,15.00
2020,08,16,06,35,15.00
2020,08,16,06,36,15.00
2020,08,16,06,37,14.90
2020,08,16,06,38,14.90
2020,08,16,06,39,14.90
2020,08,16,06,40,14.90
2020,08,16,06,41,14.90
2020,08,16,06,42,14.90
2020,08,16,06,43,14.90
2020,08,16,06,44,14.90
2020,08,16,06,45,14.90
2020,08,16,06,46,14.90
2020,08,16,06,47,14.90
2020,08,16,06,48,14.90
2020,08,16,06,49,14.90
2020,08,16,06,50,14.90
2020,08,16,06,52,14.90
2020,08,16,06,53,14.90
2020,08,16,06,55,14.90
2020,08,16,06,56,14.90
2020,08,16,06,57,14.90
2020,08,16,06,58,14.90
2020,08,16,06,59,14.90
2020,08,16,07,00,14.90
2020,08,16,07,01,14.90
2020,08,16,07,02,14.90
2020,08,16,07,03,14.90
2020,08,16,07,04,14.90
2020,08,16,07,05,14.90
2020,08,16,07,06,14.90
2020,08,16,07,07,15.00
2020,08,16,07,08,15.00
2020,08,16,07,09,15.00
2020,08,16,07,10,15.10
2020,08,16,07,11,15.10
2020,08,16,07,12,15.10
2020,08,16,07,13,15.10
2020,08,16,07,14,15.10
2020,08,16,07,15,15.20
2020,08,16,07,16,15.20
2020,08,16,07,17,15.20
2020,08,16,07,18,15.30
2020,08,16,07,19,15.30
2020,08,16,07,20,15.30
2020,08,16,07,21,15.40
2020,08,16,07,22,15.40
2020,08,16,07,23,15.50
2020,08,16,07,24,15.60
2020,08,16,07,25,15.60
2020,08,16,07,27,15.60
2020,08,16,07,28,15.70
2020,08,16,07,29,15.70
2020,08,16,07,30,15.70
2020,08,16,07,31,15.80
2020,08,16,07,32,15.80
2020,08,16,07,33,15.80
2020,08,16,07,34,15.90
2020,08,16,07,35,15.90
2020,08,16,07,36,16.00
2020,08,16,07,37,16.10
2020,08,16,07,38,16.10
2020,08,16,07,39,16.20
2020,08,16,07,40,16.20
2020,08,16,07,41,16.30
2020,08,16,07,42,16.30
2020,08,16,07,43,16.40
2020,08,16,07,44,16.40
2020,08,16,07,45,16.40
2020,08,16,07,46,16.60
2020,08,16,07,47,16.60
2020,08,16,07,48,16.60
2020,08,16,07,49,16.70
2020,08,16,07,50,16.70
2020,08,16,07,51,16.70
2020,08,16,07,52,16.80
2020,08,16,07,53,16.90
2020,08,16,07,54,16.90
2020,08,16,07,55,17.10
2020,08,16,07,56,17.10
2020,08,16,07,57,17.20
2020,08,16,07,58,17.30
2020,08,16,07,59,17.30
2020,08,16,08,00,17.30
2020,08,16,08,01,17.30
2020,08,16,08,02,17.40
2020,08,16,08,03,17.40
2020,08,16,08,04,17.40
2020,08,16,08,05,17.40
2020,08,16,08,06,17.40
2020,08,16,08,07,17.40
2020,08,16,08,08,17.40
2020,08,16,08,09,17.40
2020,08,16,08,10,17.40
2020,08,16,08,11,17.40
2020,08,16,08,12,17.50
2020,08,16,08,13,17.50
2020,08,16,08,14,17.60
2020,08,16,08,15,17.60
2020,08,16,08,16,17.60
2020,08,16,08,17,17.60
2020,08,16,08,18,17.60
2020,08,16,08,19,17.70
2020,08,16,08,20,17.70
2020,08,16,08,21,17.70
2020,08,16,08,22,17.70
2020,08,16,08,23,17.70
2020,08,16,08,24,17.70
2020,08,16,08,25,17.70
2020,08,16,08,26,17.70
2020,08,16,08,27,17.70
2020,08,16,08,28,17.70
2020,08,16,08,29,17.70
2020,08,16,08,30,17.60
2020,08,16,08,31,17.60
2020,08,16,08,32,17.70
2020,08,16,08,33,17.60
2020,08,16,08,34,17.70
2020,08,16,08,35,17.70
2020,08,16,08,36,17.70
2020,08,16,08,37,17.70
2020,08,16,08,38,17.80
2020,08,16,08,39,17.80
2020,08,16,08,40,17.80
2020,08,16,08,41,17.80
2020,08,16,08,42,17.90
2020,08,16,08,43,17.90
2020,08,16,08,44,17.90
2020,08,16,08,45,18.00
2020,08,16,08,46,18.10
2020,08,16,08,47,18.10
2020,08,16,08,48,18.20
2020,08,16,08,49,18.30
2020,08,16,08,50,18.30
2020,08,16,08,51,18.40
2020,08,16,08,52,18.50
2020,08,16,08,53,18.60
2020,08,16,08,54,18.60
2020,08,16,08,55,18.70
2020,08,16,08,56,18.70
2020,08,16,08,57,18.70
2020,08,16,08,58,18.70
2020,08,16,08,59,18.70
2020,08,16,09,00,18.70
2020,08,16,09,01,18.70
2020,08,16,09,02,18.80
2020,08,16,09,03,18.80
2020,08,16,09,04,18.80
2020,08,16,09,05,18.80
2020,08,16,09,06,18.80
2020,08,16,09,07,18.80
2020,08,16,09,09,18.90
2020,08,16,09,10,18.90
2020,08,16,09,11,18.90
2020,08,16,09,12,19.00
2020,08,16,09,13,19.00
2020,08,16,09,14,19.00
2020,08,16,09,15,19.10
2020,08,16,09,16,19.10
2020,08,16,09,17,19.10
2020,08,16,09,18,19.10
2020,08,16,09,19,19.10
2020,08,16,09,20,19.20
2020,08,16,09,21,19.20
2020,08,16,09,22,19.30
2020,08,16,09,23,19.30
2020,08,16,09,24,19.40
2020,08,16,09,25,19.60
2020,08,16,09,26,19.70
2020,08,16,09,27,19.80
2020,08,16,09,28,19.90
2020,08,16,09,29,20.10
2020,08,16,09,30,20.20
2020,08,16,09,31,20.30
2020,08,16,09,32,20.40
2020,08,16,09,33,20.50
2020,08,16,09,34,20.60
2020,08,16,09,35,20.60
2020,08,16,09,36,20.60
2020,08,16,09,37,20.60
2020,08,16,09,38,20.60
2020,08,16,09,39,20.70
2020,08,16,09,40,20.70
2020,08,16,09,41,20.80
2020,08,16,09,42,20.80
2020,08,16,09,43,20.80
2020,08,16,09,44,20.80
2020,08,16,09,45,20.80
2020,08,16,09,46,20.90
2020,08,16,09,47,20.90
2020,08,16,09,48,21.00
2020,08,16,09,49,21.10
2020,08,16,09,50,21.10
2020,08,16,09,51,21.20
2020,08,16,09,52,21.20
2020,08,16,09,53,21.30
2020,08,16,09,54,21.30
2020,08,16,09,55,21.40
2020,08,16,09,56,21.50
2020,08,16,09,57,21.60
2020,08,16,09,58,21.60
2020,08,16,09,59,21.70
2020,08,16,10,00,21.70
2020,08,16,10,01,21.70
2020,08,16,10,02,21.80
2020,08,16,10,03,21.80
2020,08,16,10,04,21.80
2020,08,16,10,05,21.80
2020,08,16,10,06,21.90
2020,08,16,10,07,22.00
2020,08,16,10,08,22.10
2020,08,16,10,09,22.10
2020,08,16,10,10,22.20
2020,08,16,10,11,22.30
2020,08,16,10,12,22.40
2020,08,16,10,13,22.40
2020,08,16,10,14,22.60
2020,08,16,10,15,22.60
2020,08,16,10,16,22.70
2020,08,16,10,17,22.70
2020,08,16,10,18,22.80
2020,08,16,10,19,22.80
2020,08,16,10,20,22.90
2020,08,16,10,21,23.10
2020,08,16,10,22,23.10
2020,08,16,10,23,23.20
2020,08,16,10,24,23.10
2020,08,16,10,25,23.10
2020,08,16,10,26,23.10
2020,08,16,10,27,23.10
2020,08,16,10,28,23.10
2020,08,16,10,29,23.10
2020,08,16,10,30,23.10
2020,08,16,10,31,23.10
2020,08,16,10,32,23.10
2020,08,16,10,33,23.20
2020,08,16,10,34,23.30
2020,08,16,10,35,23.30
2020,08,16,10,36,23.40
2020,08,16,10,37,23.40
2020,08,16,10,38,23.50
2020,08,16,10,39,23.60
2020,08,16,10,40,23.70
2020,08,16,10,41,23.70
2020,08,16,10,42,23.80
2020,08,16,10,43,23.80
2020,08,16,10,44,23.90
2020,08,16,10,45,23.90
2020,08,16,10,46,23.90
2020,08,16,10,47,24.00
2020,08,16,10,48,24.10
2020,08,16,10,49,24.20
2020,08,16,10,50,24.30
2020,08,16,10,51,24.40
2020,08,16,10,52,24.40
2020,08,16,10,53,24.60
2020,08,16,10,54,24.60
2020,08,16,10,55,24.70
2020,08,16,10,56,24.70
2020,08,16,10,57,24.80
2020,08,16,10,58,24.80
2020,08,16,10,59,24.80
2020,08,16,11,00,24.80
2020,08,16,11,01,24.80
2020,08,16,11,02,24.70
2020,08,16,11,03,24.70
2020,08,16,11,04,24.70
2020,08,16,11,05,24.70
2020,08,16,11,06,24.70
2020,08,16,11,07,24.80
2020,08,16,11,08,24.80
2020,08,16,11,09,24.90
2020,08,16,11,10,25.00
2020,08,16,11,11,25.10
2020,08,16,11,12,25.30
2020,08,16,11,13,25.40
2020,08,16,11,14,25.60
2020,08,16,11,15,25.80
2020,08,16,11,16,25.90
2020,08,16,11,17,26.00
2020,08,16,11,18,26.10
2020,08,16,11,19,26.20
2020,08,16,11,20,26.20
2020,08,16,11,21,26.30
2020,08,16,11,22,26.30
2020,08,16,11,23,26.40
2020,08,16,11,24,26.50
2020,08,16,11,25,26.60
2020,08,16,11,26,26.60
2020,08,16,11,27,26.60
2020,08,16,11,28,26.70
2020,08,16,11,29,26.80
2020,08,16,11,30,26.80
2020,08,16,11,31,26.90
2020,08,16,11,32,27.00
2020,08,16,11,33,27.10
2020,08,16,11,34,27.20
2020,08,16,11,35,27.20
2020,08,16,11,36,27.20
2020,08,16,11,37,27.20
2020,08,16,11,38,27.20
2020,08,16,11,39,27.20
2020,08,16,11,40,27.20
2020,08,16,11,41,27.30
2020,08,16,11,42,27.30
2020,08,16,11,43,27.30
2020,08,16,11,44,27.30
2020,08,16,11,45,27.30
2020,08,16,11,46,27.30
2020,08,16,11,47,27.30
2020,08,16,11,48,27.30
2020,08,16,11,49,27.30
2020,08,16,11,50,27.30
2020,08,16,11,51,27.40
2020,08,16,11,52,27.60
2020,08,16,11,53,27.70
2020,08,16,11,54,27.70
2020,08,16,11,55,27.80
2020,08,16,11,56,27.80
2020,08,16,11,57,27.80
2020,08,16,11,58,27.80
2020,08,16,11,59,27.80
2020,08,16,12,00,27.90
2020,08,16,12,01,27.90
2020,08,16,12,02,27.90
2020,08,16,12,03,28.00
2020,08,16,12,04,27.90
2020,08,16,12,05,27.90
2020,08,16,12,07,27.80
2020,08,16,12,08,27.80
2020,08,16,12,09,27.80
2020,08,16,12,10,27.80
2020,08,16,12,11,27.90
2020,08,16,12,12,28.10
2020,08,16,12,13,28.20
2020,08,16,12,14,28.30
2020,08,16,12,15,28.40
2020,08,16,12,16,28.60
2020,08,16,12,17,28.70
2020,08,16,12,18,28.70
2020,08,16,12,19,28.80
2020,08,16,12,20,28.80
2020,08,16,12,21,28.80
2020,08,16,12,22,28.70
2020,08,16,12,23,28.70
2020,08,16,12,24,28.70
2020,08,16,12,26,28.60
2020,08,16,12,27,28.60
2020,08,16,12,28,28.60
2020,08,16,12,29,28.60
2020,08,16,12,30,28.60
2020,08,16,12,31,28.70
2020,08,16,12,32,28.70
2020,08,16,12,33,28.80
2020,08,16,12,34,28.80
2020,08,16,12,35,28.90
2020,08,16,12,36,28.90
2020,08,16,12,37,29.00
2020,08,16,12,38,29.10
2020,08,16,12,39,29.10
2020,08,16,12,40,29.10
2020,08,16,12,41,29.10
2020,08,16,12,43,29.20
2020,08,16,12,44,29.20
2020,08,16,12,45,29.30
2020,08,16,12,46,29.40
2020,08,16,12,47,29.40
2020,08,16,12,48,29.40
2020,08,16,12,50,29.50
2020,08,16,12,51,29.60
2020,08,16,12,52,29.70
2020,08,16,12,53,29.80
2020,08,16,12,54,29.90
2020,08,16,12,55,30.10
2020,08,16,12,56,30.10
2020,08,16,12,57,30.20
2020,08,16,12,58,30.30
2020,08,16,12,59,30.40
2020,08,16,13,00,30.40
2020,08,16,13,01,30.50
2020,08,16,13,02,30.60
2020,08,16,13,03,30.70
2020,08,16,13,04,30.70
2020,08,16,13,05,30.80
2020,08,16,13,06,30.80
2020,08,16,13,07,30.90
2020,08,16,13,08,30.90
2020,08,16,13,09,31.00
2020,08,16,13,10,31.10
2020,08,16,13,12,31.10
2020,08,16,13,13,31.20
2020,08,16,13,14,31.20
2020,08,16,13,15,31.30
2020,08,16,13,16,31.30
2020,08,16,13,17,31.40
2020,08,16,13,18,31.60
2020,08,16,13,19,31.70
2020,08,16,13,20,31.80
2020,08,16,13,21,31.90
2020,08,16,13,22,32.00
2020,08,16,13,23,32.10
2020,08,16,13,24,32.20
2020,08,16,13,25,32.20
2020,08,16,13,26,32.20
2020,08,16,13,27,32.20
2020,08,16,13,28,32.20
2020,08,16,13,29,32.10
2020,08,16,13,30,32.20
2020,08,16,13,31,32.30
2020,08,16,13,32,32.30
2020,08,16,13,33,32.40
2020,08,16,13,34,32.40
2020,08,16,13,35,32.50
2020,08,16,13,36,32.50
2020,08,16,13,37,32.60
2020,08,16,13,38,32.50
2020,08,16,13,39,32.40
2020,08,16,13,40,32.30
2020,08,16,13,41,32.30
2020,08,16,13,42,32.40
2020,08,16,13,43,32.40
2020,08,16,13,44,32.40
2020,08,16,13,45,32.50
2020,08,16,13,47,32.60
2020,08,16,13,48,32.70
2020,08,16,13,49,32.80
2020,08,16,13,50,32.80
2020,08,16,13,51,32.80
2020,08,16,13,52,32.90
2020,08,16,13,53,33.00
2020,08,16,13,54,33.10
2020,08,16,13,55,33.20
2020,08,16,13,56,33.20
2020,08,16,13,58,33.20
2020,08,16,13,59,33.30
2020,08,16,14,00,33.40
2020,08,16,14,01,33.40
2020,08,16,14,02,33.50
2020,08,16,14,03,33.60
2020,08,16,14,04,33.60
2020,08,16,14,05,33.70
2020,08,16,14,06,33.80
2020,08,16,14,07,33.90
2020,08,16,14,08,34.00
2020,08,16,14,09,34.10
2020,08,16,14,11,34.10
2020,08,16,14,12,34.20
2020,08,16,14,13,34.30
2020,08,16,14,14,34.40
2020,08,16,14,15,34.60
2020,08,16,14,16,34.60
2020,08,16,14,17,34.70
2020,08,16,14,18,34.80
2020,08,16,14,19,34.70
2020,08,16,14,20,34.60
2020,08,16,14,21,34.40
2020,08,16,14,22,34.30
2020,08,16,14,23,34.10
2020,08,16,14,24,33.90
2020,08,16,14,25,33.80
2020,08,16,14,26,33.70
2020,08,16,14,27,33.60
2020,08,16,14,28,33.50
2020,08,16,14,29,33.40
2020,08,16,14,30,33.30
2020,08,16,14,31,33.30
2020,08,16,14,32,33.30
2020,08,16,14,33,33.30
2020,08,16,14,34,33.20
2020,08,16,14,35,33.20
2020,08,16,14,36,33.20
2020,08,16,14,37,33.30
2020,08,16,14,38,33.30
2020,08,16,14,39,33.40
2020,08,16,14,40,33.60
2020,08,16,14,41,33.60
2020,08,16,14,42,33.60
2020,08,16,14,43,33.60
2020,08,16,14,44,33.60
2020,08,16,14,45,33.50
2020,08,16,14,46,33.60
2020,08,16,14,47,33.60
2020,08,16,14,48,33.60
2020,08,16,14,49,33.60
2020,08,16,14,50,33.70
2020,08,16,14,51,33.70
2020,08,16,14,52,33.80
2020,08,16,14,53,34.00
2020,08,16,14,54,34.10
2020,08,16,14,55,34.30
2020,08,16,14,56,34.40
2020,08,16,14,57,34.60
2020,08,16,14,58,34.60
2020,08,16,14,59,34.70
2020,08,16,15,00,34.70
2020,08,16,15,01,34.60
2020,08,16,15,02,34.60
2020,08,16,15,03,34.40
2020,08,16,15,04,34.30
2020,08,16,15,05,34.30
2020,08,16,15,06,34.30
2020,08,16,15,07,34.30
2020,08,16,15,08,34.40
2020,08,16,15,09,34.50
2020,08,16,15,11,34.70
2020,08,16,15,13,34.80
2020,08,16,15,14,34.80
2020,08,16,15,15,34.80
2020,08,16,15,16,34.90
2020,08,16,15,17,34.90
2020,08,16,15,18,34.90
2020,08,16,15,19,35.00
2020,08,16,15,20,35.10
2020,08,16,15,21,35.10
2020,08,16,15,22,35.10
2020,08,16,15,23,35.20
2020,08,16,15,24,35.20
2020,08,16,15,25,35.20
2020,08,16,15,26,35.20
2020,08,16,15,28,35.20
2020,08,16,15,29,35.20
2020,08,16,15,30,35.30
2020,08,16,15,31,35.40
2020,08,16,15,32,35.40
2020,08,16,15,33,35.60
2020,08,16,15,34,35.60
2020,08,16,15,35,35.70
2020,08,16,15,36,35.70
2020,08,16,15,37,35.80
2020,08,16,15,38,35.80
2020,08,16,15,39,35.80
2020,08,16,15,40,35.80
2020,08,16,15,41,35.80
2020,08,16,15,42,35.80
2020,08,16,15,43,35.80
2020,08,16,15,44,35.80
2020,08,16,15,45,35.80
2020,08,16,15,46,35.80
2020,08,16,15,47,35.80
2020,08,16,15,48,35.80
2020,08,16,15,49,35.70
2020,08,16,15,50,35.60
2020,08,16,15,51,35.50
2020,08,16,15,52,35.50
2020,08,16,15,53,35.50
2020,08,16,15,54,35.50
2020,08,16,15,55,35.40
2020,08,16,15,56,35.40
2020,08,16,15,57,35.30
2020,08,16,15,58,35.30
2020,08,16,15,59,35.20
2020,08,16,16,00,35.20
2020,08,16,16,01,35.20
2020,08,16,16,02,35.20
2020,08,16,16,03,35.20
2020,08,16,16,04,35.20
2020,08,16,16,05,35.30
2020,08,16,16,06,35.30
2020,08,16,16,07,35.30
2020,08,16,16,08,35.30
2020,08,16,16,09,35.30
2020,08,16,16,10,35.30
2020,08,16,16,11,35.40
2020,08,16,16,12,35.40
2020,08,16,16,13,35.40
2020,08,16,16,14,35.30
2020,08,16,16,15,35.30
2020,08,16,16,16,35.30
2020,08,16,16,17,35.20
2020,08,16,16,18,35.10
2020,08,16,16,19,35.10
2020,08,16,16,20,35.00
2020,08,16,16,21,34.90
2020,08,16,16,22,34.90
2020,08,16,16,23,34.90
2020,08,16,16,24,34.90
2020,08,16,16,25,34.80
2020,08,16,16,26,34.80
2020,08,16,16,27,34.70
2020,08,16,16,28,34.70
2020,08,16,16,30,34.60
2020,08,16,16,31,34.40
2020,08,16,16,32,34.40
2020,08,16,16,33,34.40
2020,08,16,16,34,34.30
2020,08,16,16,35,34.30
2020,08,16,16,36,34.30
2020,08,16,16,37,34.30
2020,08,16,16,38,34.30
2020,08,16,16,39,34.20
2020,08,16,16,40,34.20
2020,08,16,16,41,34.20
2020,08,16,16,42,34.20
2020,08,16,16,43,34.10
2020,08,16,16,45,34.10
2020,08,16,16,46,33.90
2020,08,16,16,47,33.80
2020,08,16,16,48,33.80
2020,08,16,16,49,33.70
2020,08,16,16,50,33.70
2020,08,16,16,51,33.70
2020,08,16,16,52,33.60
2020,08,16,16,53,33.50
2020,08,16,16,54,33.40
2020,08,16,16,55,33.30
2020,08,16,16,56,33.30
2020,08,16,16,57,33.20
2020,08,16,16,58,33.20
2020,08,16,16,59,33.30
2020,08,16,17,00,33.30
2020,08,16,17,01,33.40
2020,08,16,17,02,33.40
2020,08,16,17,03,33.50
2020,08,16,17,04,33.60
2020,08,16,17,06,33.70
2020,08,16,17,07,33.70
2020,08,16,17,08,33.70
2020,08,16,17,09,33.70
2020,08,16,17,11,33.60
2020,08,16,17,12,33.60
2020,08,16,17,13,33.50
2020,08,16,17,14,33.40
2020,08,16,17,15,33.40
2020,08,16,17,16,33.40
2020,08,16,17,17,33.40
2020,08,16,17,18,33.40
2020,08,16,17,19,33.40
2020,08,16,17,20,33.40
2020,08,16,17,21,33.30
2020,08,16,17,22,33.30
2020,08,16,17,23,33.30
2020,08,16,17,24,33.30
2020,08,16,17,25,33.20
2020,08,16,17,26,33.20
2020,08,16,17,27,33.20
2020,08,16,17,28,33.10
2020,08,16,17,29,33.10
2020,08,16,17,30,33.00
2020,08,16,17,31,32.90
2020,08,16,17,32,32.90
2020,08,16,17,33,32.80
2020,08,16,17,34,32.80
2020,08,16,17,35,32.70
2020,08,16,17,36,32.70
2020,08,16,17,37,32.70
2020,08,16,17,38,32.70
2020,08,16,17,39,32.60
2020,08,16,17,40,32.60
2020,08,16,17,41,32.40
2020,08,16,17,42,32.40
2020,08,16,17,43,32.40
2020,08,16,17,44,32.40
2020,08,16,17,45,32.50
2020,08,16,17,46,32.50
2020,08,16,17,47,32.50
2020,08,16,17,48,32.50
2020,08,16,17,49,32.50
2020,08,16,17,50,32.60
2020,08,16,17,51,32.60